Preview of NWS' New Version of Forecast
This preview is not operational and should not be used for support decisions.

Regional Weather Roundup (RWR)

Issued by National Weather Service (NWS)

                            
000
ASUS45 KBOI 231210
RWRID 

IDAHO REGIONAL WEATHER ROUNDUP
NATIONAL WEATHER SERVICE BOISE ID
600 AM MDT SUN JUN 23 2019

NOTE: "FAIR" INDICATES FEW OR NO CLOUDS BELOW 12000 FEET
WITH NO SIGNIFICANT WEATHER AND/OR OBSTRUCTIONS TO VISIBILITY

IDZ012-014-231300-
SOUTHWEST IDAHO

  
CITY           SKY/WX    TMP DP  RH WIND       PRES   REMARKS
BOISE          MOCLDY    57  43  59 CALM      30.01S                  
CALDWELL       PTCLDY    52  45  77 CALM      30.01S                  
MOUNTAIN HOME  CLOUDY    53  39  58 E8        30.01F                  
$$

IDZ016-017-231300-
SOUTHCENTRAL IDAHO

  
CITY           SKY/WX    TMP DP  RH WIND       PRES   REMARKS
BURLEY         CLOUDY    50  34  54 SW6       30.07R                  
JEROME         PTCLDY    50  33  52 CALM      30.07S                  
TWIN FALLS     PTCLDY    53  31  42 SW14      30.07S                  
$$

IDZ019>023-231300-
SOUTHEAST IDAHO

  
CITY           SKY/WX    TMP DP  RH WIND       PRES   REMARKS
IDAHO FALLS    CLOUDY    44  39  82 CALM      30.10S                  
POCATELLO      MOCLDY    44  38  79 N5        30.10R                  
REXBURG        MOCLDY    42  39  89 N5        30.10S                  
$$

IDZ006-010-011-018-031-032-231300-
CENTRAL IDAHO MOUNTAINS

  
CITY           SKY/WX    TMP DP  RH WIND       PRES   REMARKS
MCCALL         CLOUDY    48  42  80 CALM      30.05F                  
HAILEY         MOCLDY    46  39  76 NW6       30.13S                  
STANLEY          N/A     42  35  76 CALM      30.15S                  
SALMON         CLOUDY    47  42  83 N3        30.07R                  
CHALLIS        CLOUDY    52  36  54 CALM      30.08S                  
$$

IDZ002-004-006-007-026-231300-
NORTHERN IDAHO

  
CITY           SKY/WX    TMP DP  RH WIND       PRES   REMARKS
LEWISTON       CLEAR     61  45  55 SE3       30.00R                  
LOWELL           N/A     52  50  93 CALM      30.03R                  
COEUR D'ALENE  CLOUDY    55  44  66 SW3       29.99R                  
MULLAN PASS    CLOUDY    45  40  82 VRB6      30.04S                  
$$